• In Czech Republic
  • List of Countries
  • For 7 days
  • Water Temperature
  • Satellite Maps
  • Weather Map
  • Weather Widgets
  • user-avatar
    Login

    Hourly Weather Tibissa

    Today, 22 June, Thursday

    Time Temperature Precipitation Wind Pressure Humidity
    00:00 +25°C° 0 mm 1 mps 687 mmHg 54%
    01:00 +22°C° 0 mm 0 mps 687 mmHg 59%
    02:00 +21°C° 0.2 mm 0 mps 686 mmHg 60%
    03:00 +21°C° 0.2 mm 0 mps 686 mmHg 61%
    04:00 +21°C° 0.2 mm 0 mps 686 mmHg 62%
    05:00 +23°C° 0.2 mm 1 mps 686 mmHg 59%
    06:00 +24°C° 0.2 mm 1 mps 687 mmHg 55%
    07:00 +26°C° 0 mm 1 mps 687 mmHg 49%
    08:00 +27°C° 0 mm 1 mps 688 mmHg 45%
    09:00 +28°C° 0 mm 2 mps 688 mmHg 40%
    10:00 +30°C° 0 mm 2 mps 688 mmHg 36%
    11:00 +30°C° 0 mm 2 mps 688 mmHg 34%
    12:00 +31°C° 0 mm 2 mps 688 mmHg 32%
    13:00 +31°C° 0 mm 2 mps 689 mmHg 32%
    14:00 +31°C° 0.1 mm 2 mps 688 mmHg 33%
    15:00 +30°C° 0.1 mm 2 mps 688 mmHg 34%
    16:00 +30°C° 0.1 mm 2 mps 688 mmHg 35%
    17:00 +29°C° 0.3 mm 2 mps 688 mmHg 40%
    18:00 +28°C° 0.3 mm 3 mps 688 mmHg 44%
    19:00 +27°C° 0.3 mm 3 mps 688 mmHg 48%
    20:00 +26°C° 0.2 mm 3 mps 688 mmHg 52%
    21:00 +25°C° 0.2 mm 2 mps 688 mmHg 56%
    22:00 +24°C° 0.2 mm 2 mps 689 mmHg 60%
    23:00 +24°C° 0 mm 2 mps 689 mmHg 62%

    Tomorrow, 23 June, Friday

    Time Temperature Precipitation Wind Pressure Humidity
    00:00 +23°C° 0 mm 2 mps 689 mmHg 65%
    01:00 +23°C° 0 mm 2 mps 689 mmHg 67%
    02:00 +21°C° 0 mm 2 mps 689 mmHg 69%
    03:00 +21°C° 0 mm 2 mps 688 mmHg 72%
    04:00 +21°C° 0 mm 1 mps 688 mmHg 75%
    05:00 +22°C° 0 mm 1 mps 689 mmHg 71%
    06:00 +23°C° 0 mm 1 mps 689 mmHg 68%
    07:00 +23°C° 0 mm 1 mps 689 mmHg 65%
    08:00 +25°C° 0 mm 1 mps 690 mmHg 58%
    09:00 +27°C° 0 mm 1 mps 690 mmHg 50%
    10:00 +28°C° 0 mm 2 mps 691 mmHg 43%
    11:00 +30°C° 0 mm 2 mps 691 mmHg 39%
    12:00 +31°C° 0 mm 2 mps 691 mmHg 35%
    13:00 +32°C° 0 mm 2 mps 691 mmHg 32%
    14:00 +32°C° 0 mm 2 mps 690 mmHg 31%
    15:00 +32°C° 0 mm 2 mps 690 mmHg 31%
    16:00 +31°C° 0 mm 2 mps 690 mmHg 31%
    17:00 +31°C° 0 mm 2 mps 690 mmHg 33%
    18:00 +30°C° 0 mm 2 mps 690 mmHg 35%
    19:00 +29°C° 0 mm 2 mps 690 mmHg 37%
    20:00 +28°C° 0 mm 2 mps 690 mmHg 41%
    21:00 +27°C° 0 mm 2 mps 690 mmHg 44%
    22:00 +26°C° 0 mm 2 mps 690 mmHg 48%
    23:00 +25°C° 0 mm 2 mps 690 mmHg 50%

    Day after tomorrow, 24 June, Saturday

    Time Temperature Precipitation Wind Pressure Humidity
    00:00 +24°C° 0 mm 2 mps 690 mmHg 52%
    01:00 +23°C° 0 mm 1 mps 689 mmHg 54%
    02:00 +23°C° 0 mm 1 mps 689 mmHg 54%
    03:00 +23°C° 0 mm 1 mps 689 mmHg 54%
    04:00 +22°C° 0 mm 1 mps 689 mmHg 55%
    05:00 +21°C° 0 mm 0 mps 689 mmHg 52%
    06:00 +22°C° 0 mm 0 mps 689 mmHg 48%
    07:00 +23°C° 0 mm 0 mps 689 mmHg 45%
    08:00 +26°C° 0 mm 1 mps 690 mmHg 41%
    09:00 +28°C° 0 mm 1 mps 690 mmHg 38%
    10:00 +30°C° 0 mm 1 mps 691 mmHg 34%
    11:00 +31°C° 0 mm 1 mps 690 mmHg 32%
    12:00 +32°C° 0 mm 2 mps 690 mmHg 30%
    13:00 +32°C° 0 mm 2 mps 690 mmHg 28%
    14:00 +32°C° 0 mm 2 mps 689 mmHg 28%
    15:00 +32°C° 0 mm 2 mps 689 mmHg 28%
    16:00 +32°C° 0 mm 1 mps 689 mmHg 28%
    17:00 +31°C° 0 mm 2 mps 689 mmHg 29%
    18:00 +31°C° 0 mm 2 mps 688 mmHg 30%
    19:00 +30°C° 0 mm 2 mps 688 mmHg 32%
    20:00 +29°C° 0 mm 2 mps 688 mmHg 34%
    21:00 +28°C° 0 mm 2 mps 689 mmHg 36%
    22:00 +26°C° 0 mm 2 mps 689 mmHg 38%
    23:00 +25°C° 0 mm 2 mps 688 mmHg 40%

    25 June, Sunday

    Time Temperature Precipitation Wind Pressure Humidity
    00:00 +25°C° 0 mm 1 mps 688 mmHg 42%
    01:00 +24°C° 0 mm 1 mps 688 mmHg 44%
    02:00 +23°C° 0 mm 1 mps 688 mmHg 45%
    03:00 +23°C° 0 mm 1 mps 687 mmHg 47%
    04:00 +22°C° 0 mm 1 mps 687 mmHg 48%
    05:00 +23°C° 0 mm 1 mps 687 mmHg 45%
    06:00 +24°C° 0 mm 1 mps 688 mmHg 42%
    07:00 +25°C° 0 mm 1 mps 688 mmHg 39%
    08:00 +27°C° 0 mm 1 mps 688 mmHg 35%
    09:00 +29°C° 0 mm 1 mps 689 mmHg 31%
    10:00 +31°C° 0 mm 1 mps 689 mmHg 27%
    11:00 +32°C° 0 mm 2 mps 689 mmHg 25%
    12:00 +34°C° 0 mm 2 mps 689 mmHg 22%
    13:00 +35°C° 0 mm 2 mps 689 mmHg 19%
    14:00 +36°C° 0 mm 2 mps 688 mmHg 18%
    15:00 +36°C° 0 mm 3 mps 688 mmHg 17%
    16:00 +36°C° 0 mm 3 mps 688 mmHg 16%
    17:00 +36°C° 0 mm 3 mps 687 mmHg 17%
    18:00 +35°C° 0 mm 4 mps 687 mmHg 19%
    19:00 +34°C° 0 mm 4 mps 687 mmHg 20%
    20:00 +31°C° 0 mm 3 mps 687 mmHg 24%
    21:00 +29°C° 0 mm 3 mps 687 mmHg 27%
    22:00 +28°C° 0 mm 2 mps 687 mmHg 31%
    23:00 +27°C° 0 mm 2 mps 687 mmHg 33%

    26 June, Monday

    Time Temperature Precipitation Wind Pressure Humidity
    00:00 +26°C° 0 mm 2 mps 687 mmHg 35%
    01:00 +26°C° 0 mm 1 mps 686 mmHg 37%
    02:00 +25°C° 0 mm 1 mps 686 mmHg 37%
    03:00 +25°C° 0 mm 1 mps 686 mmHg 38%
    04:00 +24°C° 0 mm 1 mps 685 mmHg 39%
    05:00 +25°C° 0 mm 2 mps 686 mmHg 37%
    06:00 +26°C° 0 mm 2 mps 686 mmHg 35%
    07:00 +27°C° 0 mm 2 mps 686 mmHg 33%
    08:00 +29°C° 0 mm 2 mps 687 mmHg 29%
    09:00 +31°C° 0 mm 3 mps 687 mmHg 25%
    10:00 +34°C° 0 mm 3 mps 688 mmHg 21%
    11:00 +35°C° 0 mm 3 mps 687 mmHg 19%
    12:00 +37°C° 0 mm 3 mps 687 mmHg 17%
    13:00 +38°C° 0 mm 3 mps 687 mmHg 15%
    14:00 +38°C° 0 mm 3 mps 687 mmHg 15%
    15:00 +39°C° 0 mm 3 mps 686 mmHg 14%
    16:00 +39°C° 0 mm 3 mps 686 mmHg 14%
    17:00 +38°C° 0 mm 3 mps 686 mmHg 15%
    18:00 +37°C° 0 mm 4 mps 685 mmHg 17%
    19:00 +36°C° 0 mm 4 mps 685 mmHg 18%
    20:00 +34°C° 0 mm 4 mps 685 mmHg 21%
    21:00 +31°C° 0 mm 3 mps 685 mmHg 23%
    22:00 +30°C° 0 mm 3 mps 685 mmHg 26%
    23:00 +29°C° 0 mm 3 mps 685 mmHg 28%

    27 June, Tuesday

    Time Temperature Precipitation Wind Pressure Humidity
    00:00 +28°C° 0 mm 2 mps 685 mmHg 29%
    01:00 +27°C° 0 mm 2 mps 685 mmHg 31%
    02:00 +27°C° 0 mm 2 mps 685 mmHg 32%
    03:00 +26°C° 0 mm 2 mps 685 mmHg 33%
    04:00 +26°C° 0 mm 2 mps 684 mmHg 34%
    05:00 +27°C° 0 mm 2 mps 685 mmHg 32%
    06:00 +27°C° 0 mm 2 mps 685 mmHg 30%
    07:00 +28°C° 0 mm 2 mps 685 mmHg 28%
    08:00 +31°C° 0 mm 3 mps 686 mmHg 24%
    09:00 +34°C° 0 mm 4 mps 686 mmHg 21%
    10:00 +36°C° 0 mm 4 mps 687 mmHg 17%
    11:00 +38°C° 0 mm 4 mps 686 mmHg 16%
    12:00 +40°C° 0 mm 4 mps 686 mmHg 15%
    13:00 +41°C° 0 mm 4 mps 686 mmHg 13%
    14:00 +41°C° 0 mm 4 mps 686 mmHg 13%
    15:00 +41°C° 0 mm 4 mps 685 mmHg 13%
    16:00 +41°C° 0 mm 5 mps 685 mmHg 13%
    17:00 +38°C° 0.1 mm 4 mps 685 mmHg 16%
    18:00 +37°C° 0.1 mm 4 mps 685 mmHg 19%
    19:00 +35°C° 0.1 mm 4 mps 685 mmHg 21%
    20:00 +34°C° 0.3 mm 3 mps 685 mmHg 24%
    21:00 +31°C° 0.3 mm 2 mps 685 mmHg 27%
    22:00 +30°C° 0.3 mm 2 mps 685 mmHg 30%
    23:00 +29°C° 0.2 mm 2 mps 685 mmHg 30%
    Show more